Date_Time,Julian_Date,Latitude,Longitude,Instrument_Depth,U,V,Speed,Direction
(yyyy-mm-dd hh:mn:ss UTC),(JD),(+ deg. North),(+ deg. East),(m),(cm/s),(cm/s),(cm/s),(deg True)
1981-05-20 18:00:00 UTC,2444745.250000,29.4519,-93.4333,0107,11.68,5.70,13.0000,64.0000
1981-05-20 18:30:00 UTC,2444745.270833,29.4519,-93.4333,0107,10.46,3.40,11.0000,72.0000
1981-05-20 19:00:00 UTC,2444745.291667,29.4519,-93.4333,0107,9.82,1.91,10.0000,79.0000
1981-05-20 19:30:00 UTC,2444745.312500,29.4519,-93.4333,0107,6.99,0.37,7.0000,87.0000
1981-05-20 20:00:00 UTC,2444745.333333,29.4519,-93.4333,0107,6.93,-0.97,7.0000,98.0000
1981-05-20 20:30:00 UTC,2444745.354167,29.4519,-93.4333,0107,7.73,-2.07,8.0000,105.0000
1981-05-20 21:00:00 UTC,2444745.375000,29.4519,-93.4333,0107,8.40,-3.23,9.0000,111.0000
1981-05-20 21:30:00 UTC,2444745.395833,29.4519,-93.4333,0107,10.46,-3.40,11.0000,108.0000
1981-05-20 22:00:00 UTC,2444745.416667,29.4519,-93.4333,0107,12.43,-3.80,13.0000,107.0000
1981-05-20 22:30:00 UTC,2444745.437500,29.4519,-93.4333,0107,10.79,-5.26,12.0000,116.0000
1981-05-20 23:00:00 UTC,2444745.458333,29.4519,-93.4333,0107,9.95,-6.71,12.0000,124.0000
1981-05-20 23:30:00 UTC,2444745.479167,29.4519,-93.4333,0107,9.12,-6.15,11.0000,124.0000
1981-05-21 00:00:00 UTC,2444745.500000,29.4519,-93.4333,0107,6.99,-5.66,9.0000,129.0000
1981-05-21 00:30:00 UTC,2444745.520833,29.4519,-93.4333,0107,4.39,-4.09,6.0000,133.0000
1981-05-21 01:00:00 UTC,2444745.541667,29.4519,-93.4333,0107,4.97,-3.36,6.0000,124.0000
1981-05-21 01:30:00 UTC,2444745.562500,29.4519,-93.4333,0107,4.97,-3.36,6.0000,124.0000
1981-05-21 02:00:00 UTC,2444745.583333,29.4519,-93.4333,0107,4.60,-3.86,6.0000,130.0000
1981-05-21 02:30:00 UTC,2444745.604167,29.4519,-93.4333,0107,3.83,-3.21,5.0000,130.0000
1981-05-21 03:00:00 UTC,2444745.625000,29.4519,-93.4333,0107,3.15,-2.46,4.0000,128.0000
1981-05-21 03:30:00 UTC,2444745.645833,29.4519,-93.4333,0107,1.98,-0.31,2.0000,99.0000
1981-05-21 04:00:00 UTC,2444745.666667,29.4519,-93.4333,0107,4.24,2.65,5.0000,58.0000
1981-05-21 04:30:00 UTC,2444745.687500,29.4519,-93.4333,0107,5.95,5.35,8.0000,48.0000
1981-05-21 05:00:00 UTC,2444745.708333,29.4519,-93.4333,0107,4.59,5.28,7.0000,41.0000
1981-05-21 05:30:00 UTC,2444745.729167,29.4519,-93.4333,0107,3.69,4.73,6.0000,38.0000
1981-05-21 06:00:00 UTC,2444745.750000,29.4519,-93.4333,0107,0.49,3.97,4.0000,7.0000
1981-05-21 06:30:00 UTC,2444745.770833,29.4519,-93.4333,0107,-3.61,4.79,6.0000,323.0000
1981-05-21 07:00:00 UTC,2444745.791667,29.4519,-93.4333,0107,-5.25,6.04,8.0000,319.0000
1981-05-21 07:30:00 UTC,2444745.812500,29.4519,-93.4333,0107,-6.14,6.58,9.0000,317.0000
1981-05-21 08:00:00 UTC,2444745.833333,29.4519,-93.4333,0107,-7.77,6.29,10.0000,309.0000
1981-05-21 08:30:00 UTC,2444745.854167,29.4519,-93.4333,0107,-7.87,4.36,9.0000,299.0000
1981-05-21 09:00:00 UTC,2444745.875000,29.4519,-93.4333,0107,-9.46,3.26,10.0000,289.0000
1981-05-21 09:30:00 UTC,2444745.895833,29.4519,-93.4333,0107,-12.84,2.03,13.0000,279.0000
1981-05-21 10:00:00 UTC,2444745.916667,29.4519,-93.4333,0107,-15.80,-2.50,16.0000,261.0000
1981-05-21 10:30:00 UTC,2444745.937500,29.4519,-93.4333,0107,-18.91,-6.51,20.0000,251.0000
1981-05-21 11:00:00 UTC,2444745.958333,29.4519,-93.4333,0107,-20.67,-7.52,22.0000,250.0000
1981-05-21 11:30:00 UTC,2444745.979167,29.4519,-93.4333,0107,-20.28,-5.44,21.0000,255.0000
1981-05-21 12:00:00 UTC,2444746.000000,29.4519,-93.4333,0107,-19.63,-3.82,20.0000,259.0000
1981-05-21 12:30:00 UTC,2444746.020833,29.4519,-93.4333,0107,-18.86,-2.32,19.0000,263.0000
1981-05-21 13:00:00 UTC,2444746.041667,29.4519,-93.4333,0107,-18.95,-1.33,19.0000,266.0000
1981-05-21 13:30:00 UTC,2444746.062500,29.4519,-93.4333,0107,-15.96,-1.12,16.0000,266.0000
1981-05-21 14:00:00 UTC,2444746.083333,29.4519,-93.4333,0107,-13.86,-1.95,14.0000,262.0000
1981-05-21 14:30:00 UTC,2444746.104167,29.4519,-93.4333,0107,-13.83,-2.19,14.0000,261.0000
1981-05-21 15:00:00 UTC,2444746.125000,29.4519,-93.4333,0107,-13.98,-0.73,14.0000,267.0000
1981-05-21 15:30:00 UTC,2444746.145833,29.4519,-93.4333,0107,-10.86,1.72,11.0000,279.0000
1981-05-21 16:00:00 UTC,2444746.166667,29.4519,-93.4333,0107,-6.79,5.90,9.0000,311.0000
1981-05-21 16:30:00 UTC,2444746.187500,29.4519,-93.4333,0107,-4.23,9.06,10.0000,335.0000
1981-05-21 17:00:00 UTC,2444746.208333,29.4519,-93.4333,0107,-6.00,10.39,12.0000,330.0000
1981-05-21 17:30:00 UTC,2444746.229167,29.4519,-93.4333,0107,-7.05,9.71,12.0000,324.0000
1981-05-21 18:00:00 UTC,2444746.250000,29.4519,-93.4333,0107,-5.50,9.53,11.0000,330.0000
1981-05-21 18:30:00 UTC,2444746.270833,29.4519,-93.4333,0107,-3.09,9.51,10.0000,342.0000
1981-05-21 19:00:00 UTC,2444746.291667,29.4519,-93.4333,0107,-0.47,8.99,9.0000,357.0000
1981-05-21 19:30:00 UTC,2444746.312500,29.4519,-93.4333,0107,1.22,6.89,7.0000,10.0000
1981-05-21 20:00:00 UTC,2444746.333333,29.4519,-93.4333,0107,1.30,3.78,4.0000,19.0000
1981-05-21 20:30:00 UTC,2444746.354167,29.4519,-93.4333,0107,-0.00,0.00,0.0000,330.0000
1981-05-21 21:00:00 UTC,2444746.375000,29.4519,-93.4333,0107,-2.46,-1.72,3.0000,235.0000
1981-05-21 21:30:00 UTC,2444746.395833,29.4519,-93.4333,0107,-2.46,-1.72,3.0000,235.0000
1981-05-21 22:00:00 UTC,2444746.416667,29.4519,-93.4333,0107,-1.39,-1.44,2.0000,224.0000
1981-05-21 22:30:00 UTC,2444746.437500,29.4519,-93.4333,0107,-0.35,-1.97,2.0000,190.0000
1981-05-21 23:00:00 UTC,2444746.458333,29.4519,-93.4333,0107,1.08,-2.80,3.0000,159.0000
1981-05-21 23:30:00 UTC,2444746.479167,29.4519,-93.4333,0107,3.00,-5.20,6.0000,150.0000
1981-05-22 00:00:00 UTC,2444746.500000,29.4519,-93.4333,0107,3.18,-6.24,7.0000,153.0000
1981-05-22 00:30:00 UTC,2444746.520833,29.4519,-93.4333,0107,2.05,-6.69,7.0000,163.0000
1981-05-22 01:00:00 UTC,2444746.541667,29.4519,-93.4333,0107,-0.31,-8.99,9.0000,182.0000
1981-05-22 01:30:00 UTC,2444746.562500,29.4519,-93.4333,0107,-3.76,-10.34,11.0000,200.0000
1981-05-22 02:00:00 UTC,2444746.583333,29.4519,-93.4333,0107,-6.15,-9.12,11.0000,214.0000
1981-05-22 02:30:00 UTC,2444746.604167,29.4519,-93.4333,0107,-7.55,-6.56,10.0000,229.0000
1981-05-22 03:00:00 UTC,2444746.625000,29.4519,-93.4333,0107,-9.06,-4.23,10.0000,245.0000
1981-05-22 03:30:00 UTC,2444746.645833,29.4519,-93.4333,0107,-10.63,-2.85,11.0000,255.0000
1981-05-22 04:00:00 UTC,2444746.666667,29.4519,-93.4333,0107,-11.95,-1.05,12.0000,265.0000
1981-05-22 04:30:00 UTC,2444746.687500,29.4519,-93.4333,0107,-10.92,1.34,11.0000,277.0000
1981-05-22 05:00:00 UTC,2444746.708333,29.4519,-93.4333,0107,-10.67,2.66,11.0000,284.0000
1981-05-22 05:30:00 UTC,2444746.729167,29.4519,-93.4333,0107,-8.40,3.23,9.0000,291.0000
1981-05-22 06:00:00 UTC,2444746.750000,29.4519,-93.4333,0107,-7.87,4.36,9.0000,299.0000
1981-05-22 06:30:00 UTC,2444746.770833,29.4519,-93.4333,0107,-6.78,4.24,8.0000,302.0000
1981-05-22 07:00:00 UTC,2444746.791667,29.4519,-93.4333,0107,-6.06,3.50,7.0000,300.0000
1981-05-22 07:30:00 UTC,2444746.812500,29.4519,-93.4333,0107,-7.06,3.76,8.0000,298.0000
1981-05-22 08:00:00 UTC,2444746.833333,29.4519,-93.4333,0107,-6.78,4.24,8.0000,302.0000
1981-05-22 08:30:00 UTC,2444746.854167,29.4519,-93.4333,0107,-6.47,6.25,9.0000,314.0000
1981-05-22 09:00:00 UTC,2444746.875000,29.4519,-93.4333,0107,-4.36,7.87,9.0000,331.0000
1981-05-22 09:30:00 UTC,2444746.895833,29.4519,-93.4333,0107,-1.25,8.91,9.0000,352.0000
1981-05-22 10:00:00 UTC,2444746.916667,29.4519,-93.4333,0107,1.25,7.90,8.0000,9.0000
1981-05-22 10:30:00 UTC,2444746.937500,29.4519,-93.4333,0107,1.95,4.60,5.0000,23.0000
1981-05-22 11:00:00 UTC,2444746.958333,29.4519,-93.4333,0107,1.15,1.64,2.0000,35.0000
1981-05-22 11:30:00 UTC,2444746.979167,29.4519,-93.4333,0107,0.67,0.74,1.0000,42.0000
1981-05-22 12:00:00 UTC,2444747.000000,29.4519,-93.4333,0107,0.91,1.78,2.0000,27.0000
1981-05-22 12:30:00 UTC,2444747.020833,29.4519,-93.4333,0107,1.04,3.86,4.0000,15.0000
1981-05-22 13:00:00 UTC,2444747.041667,29.4519,-93.4333,0107,0.05,3.00,3.0000,1.0000
1981-05-22 13:30:00 UTC,2444747.062500,29.4519,-93.4333,0107,-0.39,0.92,1.0000,337.0000
1981-05-22 14:00:00 UTC,2444747.083333,29.4519,-93.4333,0107,-0.00,0.00,0.0000,287.0000
1981-05-22 14:30:00 UTC,2444747.104167,29.4519,-93.4333,0107,-0.73,0.68,1.0000,313.0000
1981-05-22 15:00:00 UTC,2444747.125000,29.4519,-93.4333,0107,-1.12,1.66,2.0000,326.0000
1981-05-22 15:30:00 UTC,2444747.145833,29.4519,-93.4333,0107,-1.45,2.62,3.0000,331.0000
1981-05-22 16:00:00 UTC,2444747.166667,29.4519,-93.4333,0107,-2.01,2.23,3.0000,318.0000
1981-05-22 16:30:00 UTC,2444747.187500,29.4519,-93.4333,0107,-2.40,1.81,3.0000,307.0000
1981-05-22 17:00:00 UTC,2444747.208333,29.4519,-93.4333,0107,-2.57,1.55,3.0000,301.0000
1981-05-22 17:30:00 UTC,2444747.229167,29.4519,-93.4333,0107,-3.35,2.18,4.0000,303.0000
1981-05-22 18:00:00 UTC,2444747.250000,29.4519,-93.4333,0107,-4.53,3.94,6.0000,311.0000
1981-05-22 18:30:00 UTC,2444747.270833,29.4519,-93.4333,0107,-4.59,5.28,7.0000,319.0000
1981-05-22 19:00:00 UTC,2444747.291667,29.4519,-93.4333,0107,-3.00,5.20,6.0000,330.0000
1981-05-22 19:30:00 UTC,2444747.312500,29.4519,-93.4333,0107,-1.79,4.67,5.0000,339.0000
1981-05-22 20:00:00 UTC,2444747.333333,29.4519,-93.4333,0107,-0.62,1.90,2.0000,342.0000
1981-05-22 20:30:00 UTC,2444747.354167,29.4519,-93.4333,0107,-0.00,0.00,0.0000,350.0000
1981-05-22 21:00:00 UTC,2444747.375000,29.4519,-93.4333,0107,-0.00,-0.00,0.0000,200.0000
1981-05-22 21:30:00 UTC,2444747.395833,29.4519,-93.4333,0107,-0.97,-1.75,2.0000,209.0000
1981-05-22 22:00:00 UTC,2444747.416667,29.4519,-93.4333,0107,-2.46,-3.15,4.0000,218.0000
1981-05-22 22:30:00 UTC,2444747.437500,29.4519,-93.4333,0107,-5.44,-4.41,7.0000,231.0000
1981-05-22 23:00:00 UTC,2444747.458333,29.4519,-93.4333,0107,-8.57,-5.15,10.0000,239.0000
1981-05-22 23:30:00 UTC,2444747.479167,29.4519,-93.4333,0107,-9.33,-5.83,11.0000,238.0000
1981-05-23 00:00:00 UTC,2444747.500000,29.4519,-93.4333,0107,-8.78,-8.18,12.0000,227.0000
1981-05-23 00:30:00 UTC,2444747.520833,29.4519,-93.4333,0107,-10.23,-10.97,15.0000,223.0000
1981-05-23 01:00:00 UTC,2444747.541667,29.4519,-93.4333,0107,-12.02,-12.02,17.0000,225.0000
1981-05-23 01:30:00 UTC,2444747.562500,29.4519,-93.4333,0107,-13.79,-11.57,18.0000,230.0000
1981-05-23 02:00:00 UTC,2444747.583333,29.4519,-93.4333,0107,-14.09,-9.51,17.0000,236.0000
1981-05-23 02:30:00 UTC,2444747.604167,29.4519,-93.4333,0107,-13.71,-8.24,16.0000,239.0000
1981-05-23 03:00:00 UTC,2444747.625000,29.4519,-93.4333,0107,-12.12,-7.00,14.0000,240.0000
1981-05-23 03:30:00 UTC,2444747.645833,29.4519,-93.4333,0107,-12.47,-6.36,14.0000,243.0000
1981-05-23 04:00:00 UTC,2444747.666667,29.4519,-93.4333,0107,-11.97,-5.08,13.0000,247.0000
1981-05-23 04:30:00 UTC,2444747.687500,29.4519,-93.4333,0107,-13.46,-3.86,14.0000,254.0000
1981-05-23 05:00:00 UTC,2444747.708333,29.4519,-93.4333,0107,-14.96,-1.05,15.0000,266.0000
1981-05-23 05:30:00 UTC,2444747.729167,29.4519,-93.4333,0107,-14.89,1.83,15.0000,277.0000
1981-05-23 06:00:00 UTC,2444747.750000,29.4519,-93.4333,0107,-13.46,3.86,14.0000,286.0000
1981-05-23 06:30:00 UTC,2444747.770833,29.4519,-93.4333,0107,-11.97,5.08,13.0000,293.0000
1981-05-23 07:00:00 UTC,2444747.791667,29.4519,-93.4333,0107,-11.37,6.30,13.0000,299.0000
1981-05-23 07:30:00 UTC,2444747.812500,29.4519,-93.4333,0107,-10.29,6.18,12.0000,301.0000
1981-05-23 08:00:00 UTC,2444747.833333,29.4519,-93.4333,0107,-9.97,4.65,11.0000,295.0000
1981-05-23 08:30:00 UTC,2444747.854167,29.4519,-93.4333,0107,-10.52,3.22,11.0000,287.0000
1981-05-23 09:00:00 UTC,2444747.875000,29.4519,-93.4333,0107,-11.59,3.11,12.0000,285.0000
1981-05-23 09:30:00 UTC,2444747.895833,29.4519,-93.4333,0107,-10.67,2.66,11.0000,284.0000
1981-05-23 10:00:00 UTC,2444747.916667,29.4519,-93.4333,0107,-8.83,1.72,9.0000,281.0000
1981-05-23 10:30:00 UTC,2444747.937500,29.4519,-93.4333,0107,-7.00,-0.00,7.0000,270.0000
1981-05-23 11:00:00 UTC,2444747.958333,29.4519,-93.4333,0107,-5.80,-1.55,6.0000,255.0000
1981-05-23 11:30:00 UTC,2444747.979167,29.4519,-93.4333,0107,-4.53,-2.11,5.0000,245.0000
1981-05-23 12:00:00 UTC,2444748.000000,29.4519,-93.4333,0107,-4.24,-2.65,5.0000,238.0000
1981-05-23 12:30:00 UTC,2444748.020833,29.4519,-93.4333,0107,-4.53,-3.94,6.0000,229.0000
1981-05-23 13:00:00 UTC,2444748.041667,29.4519,-93.4333,0107,-4.11,-5.66,7.0000,216.0000
1981-05-23 13:30:00 UTC,2444748.062500,29.4519,-93.4333,0107,-3.00,-7.42,8.0000,202.0000
1981-05-23 14:00:00 UTC,2444748.083333,29.4519,-93.4333,0107,-2.48,-8.65,9.0000,196.0000
1981-05-23 14:30:00 UTC,2444748.104167,29.4519,-93.4333,0107,-3.09,-9.51,10.0000,198.0000
1981-05-23 15:00:00 UTC,2444748.125000,29.4519,-93.4333,0107,-3.42,-9.40,10.0000,200.0000
1981-05-23 15:30:00 UTC,2444748.145833,29.4519,-93.4333,0107,-2.07,-7.73,8.0000,195.0000
1981-05-23 16:00:00 UTC,2444748.166667,29.4519,-93.4333,0107,-0.42,-5.99,6.0000,184.0000
1981-05-23 16:30:00 UTC,2444748.187500,29.4519,-93.4333,0107,1.46,-4.78,5.0000,163.0000
1981-05-23 17:00:00 UTC,2444748.208333,29.4519,-93.4333,0107,2.82,-5.30,6.0000,152.0000
1981-05-23 17:30:00 UTC,2444748.229167,29.4519,-93.4333,0107,2.47,-7.61,8.0000,162.0000
1981-05-23 18:00:00 UTC,2444748.250000,29.4519,-93.4333,0107,0.17,-10.00,10.0000,179.0000
1981-05-23 18:30:00 UTC,2444748.270833,29.4519,-93.4333,0107,-2.59,-9.66,10.0000,195.0000
1981-05-23 19:00:00 UTC,2444748.291667,29.4519,-93.4333,0107,-4.82,-9.89,11.0000,206.0000
1981-05-23 19:30:00 UTC,2444748.312500,29.4519,-93.4333,0107,-5.00,-8.66,10.0000,210.0000
1981-05-23 20:00:00 UTC,2444748.333333,29.4519,-93.4333,0107,-4.69,-8.83,10.0000,208.0000
1981-05-23 20:30:00 UTC,2444748.354167,29.4519,-93.4333,0107,-4.09,-8.02,9.0000,207.0000
1981-05-23 21:00:00 UTC,2444748.375000,29.4519,-93.4333,0107,-4.38,-8.99,10.0000,206.0000
1981-05-23 21:30:00 UTC,2444748.395833,29.4519,-93.4333,0107,-4.47,-10.05,11.0000,204.0000
1981-05-23 22:00:00 UTC,2444748.416667,29.4519,-93.4333,0107,-4.65,-9.97,11.0000,205.0000
1981-05-23 22:30:00 UTC,2444748.437500,29.4519,-93.4333,0107,-5.45,-8.39,10.0000,213.0000
1981-05-23 23:00:00 UTC,2444748.458333,29.4519,-93.4333,0107,-6.14,-6.58,9.0000,223.0000
1981-05-23 23:30:00 UTC,2444748.479167,29.4519,-93.4333,0107,-4.86,-5.04,7.0000,224.0000
1981-05-24 00:00:00 UTC,2444748.500000,29.4519,-93.4333,0107,-5.35,-5.95,8.0000,222.0000
1981-05-24 00:30:00 UTC,2444748.520833,29.4519,-93.4333,0107,-6.79,-5.90,9.0000,229.0000
1981-05-24 01:00:00 UTC,2444748.541667,29.4519,-93.4333,0107,-7.46,-5.03,9.0000,236.0000
1981-05-24 01:30:00 UTC,2444748.562500,29.4519,-93.4333,0107,-7.71,-4.64,9.0000,239.0000
1981-05-24 02:00:00 UTC,2444748.583333,29.4519,-93.4333,0107,-7.63,-4.77,9.0000,238.0000
1981-05-24 02:30:00 UTC,2444748.604167,29.4519,-93.4333,0107,-8.29,-5.59,10.0000,236.0000
1981-05-24 03:00:00 UTC,2444748.625000,29.4519,-93.4333,0107,-10.29,-6.18,12.0000,239.0000
1981-05-24 03:30:00 UTC,2444748.645833,29.4519,-93.4333,0107,-11.78,-5.49,13.0000,245.0000
1981-05-24 04:00:00 UTC,2444748.666667,29.4519,-93.4333,0107,-12.98,-5.24,14.0000,248.0000
1981-05-24 04:30:00 UTC,2444748.687500,29.4519,-93.4333,0107,-13.46,-3.86,14.0000,254.0000
1981-05-24 05:00:00 UTC,2444748.708333,29.4519,-93.4333,0107,-13.79,-2.43,14.0000,260.0000
1981-05-24 05:30:00 UTC,2444748.729167,29.4519,-93.4333,0107,-13.92,-1.46,14.0000,264.0000
1981-05-24 06:00:00 UTC,2444748.750000,29.4519,-93.4333,0107,-13.90,-1.71,14.0000,263.0000
1981-05-24 06:30:00 UTC,2444748.770833,29.4519,-93.4333,0107,-14.67,-3.12,15.0000,258.0000
1981-05-24 07:00:00 UTC,2444748.791667,29.4519,-93.4333,0107,-14.62,-3.37,15.0000,257.0000
1981-05-24 07:30:00 UTC,2444748.812500,29.4519,-93.4333,0107,-14.67,-3.12,15.0000,258.0000
1981-05-24 08:00:00 UTC,2444748.833333,29.4519,-93.4333,0107,-16.74,-2.95,17.0000,260.0000
1981-05-24 08:30:00 UTC,2444748.854167,29.4519,-93.4333,0107,-16.94,-1.48,17.0000,265.0000
1981-05-24 09:00:00 UTC,2444748.875000,29.4519,-93.4333,0107,-14.98,-0.79,15.0000,267.0000
1981-05-24 09:30:00 UTC,2444748.895833,29.4519,-93.4333,0107,-12.97,-0.91,13.0000,266.0000
1981-05-24 10:00:00 UTC,2444748.916667,29.4519,-93.4333,0107,-12.00,-0.21,12.0000,269.0000
1981-05-24 10:30:00 UTC,2444748.937500,29.4519,-93.4333,0107,-9.95,1.05,10.0000,276.0000
1981-05-24 11:00:00 UTC,2444748.958333,29.4519,-93.4333,0107,-8.65,2.48,9.0000,286.0000
1981-05-24 11:30:00 UTC,2444748.979167,29.4519,-93.4333,0107,-7.25,3.38,8.0000,295.0000
1981-05-24 12:00:00 UTC,2444749.000000,29.4519,-93.4333,0107,-8.16,3.80,9.0000,295.0000
1981-05-24 12:30:00 UTC,2444749.020833,29.4519,-93.4333,0107,-9.06,4.23,10.0000,295.0000
1981-05-24 13:00:00 UTC,2444749.041667,29.4519,-93.4333,0107,-9.71,5.16,11.0000,298.0000
1981-05-24 13:30:00 UTC,2444749.062500,29.4519,-93.4333,0107,-9.33,5.83,11.0000,302.0000
1981-05-24 14:00:00 UTC,2444749.083333,29.4519,-93.4333,0107,-8.09,5.88,10.0000,306.0000
1981-05-24 14:30:00 UTC,2444749.104167,29.4519,-93.4333,0107,-7.55,4.90,9.0000,303.0000
1981-05-24 15:00:00 UTC,2444749.125000,29.4519,-93.4333,0107,-6.24,3.18,7.0000,297.0000
1981-05-24 15:30:00 UTC,2444749.145833,29.4519,-93.4333,0107,-5.94,3.71,7.0000,302.0000
1981-05-24 16:00:00 UTC,2444749.166667,29.4519,-93.4333,0107,-5.52,4.31,7.0000,308.0000
1981-05-24 16:30:00 UTC,2444749.187500,29.4519,-93.4333,0107,-4.33,2.50,5.0000,300.0000
1981-05-24 17:00:00 UTC,2444749.208333,29.4519,-93.4333,0107,-2.00,0.10,2.0000,273.0000
1981-05-24 17:30:00 UTC,2444749.229167,29.4519,-93.4333,0107,-2.26,-1.97,3.0000,229.0000
1981-05-24 18:00:00 UTC,2444749.250000,29.4519,-93.4333,0107,-3.60,-3.47,5.0000,226.0000
1981-05-24 18:30:00 UTC,2444749.270833,29.4519,-93.4333,0107,-3.06,-2.57,4.0000,230.0000
1981-05-24 19:00:00 UTC,2444749.291667,29.4519,-93.4333,0107,-2.62,-1.45,3.0000,241.0000
1981-05-24 19:30:00 UTC,2444749.312500,29.4519,-93.4333,0107,-1.83,-0.81,2.0000,246.0000
1981-05-24 20:00:00 UTC,2444749.333333,29.4519,-93.4333,0107,-1.78,-0.91,2.0000,243.0000
1981-05-24 20:30:00 UTC,2444749.354167,29.4519,-93.4333,0107,-1.71,-1.03,2.0000,239.0000
1981-05-24 21:00:00 UTC,2444749.375000,29.4519,-93.4333,0107,-0.72,-0.69,1.0000,226.0000
1981-05-24 21:30:00 UTC,2444749.395833,29.4519,-93.4333,0107,1.06,-1.70,2.0000,148.0000
1981-05-24 22:00:00 UTC,2444749.416667,29.4519,-93.4333,0107,2.42,-4.37,5.0000,151.0000
1981-05-24 22:30:00 UTC,2444749.437500,29.4519,-93.4333,0107,0.70,-7.97,8.0000,175.0000
1981-05-24 23:00:00 UTC,2444749.458333,29.4519,-93.4333,0107,-4.50,-11.13,12.0000,202.0000
1981-05-24 23:30:00 UTC,2444749.479167,29.4519,-93.4333,0107,-10.71,-11.89,16.0000,222.0000
1981-05-25 00:00:00 UTC,2444749.500000,29.4519,-93.4333,0107,-14.26,-9.26,17.0000,237.0000
1981-05-25 00:30:00 UTC,2444749.520833,29.4519,-93.4333,0107,-14.10,-5.13,15.0000,250.0000
1981-05-25 01:00:00 UTC,2444749.541667,29.4519,-93.4333,0107,-11.48,-3.51,12.0000,253.0000
1981-05-25 01:30:00 UTC,2444749.562500,29.4519,-93.4333,0107,-6.13,-5.14,8.0000,230.0000
1981-05-25 02:00:00 UTC,2444749.583333,29.4519,-93.4333,0107,-3.23,-8.40,9.0000,201.0000
1981-05-25 02:30:00 UTC,2444749.604167,29.4519,-93.4333,0107,-4.66,-12.14,13.0000,201.0000
1981-05-25 03:00:00 UTC,2444749.625000,29.4519,-93.4333,0107,-8.24,-14.87,17.0000,209.0000
1981-05-25 03:30:00 UTC,2444749.645833,29.4519,-93.4333,0107,-12.04,-13.38,18.0000,222.0000
1981-05-25 04:00:00 UTC,2444749.666667,29.4519,-93.4333,0107,-15.10,-9.80,18.0000,237.0000
1981-05-25 04:30:00 UTC,2444749.687500,29.4519,-93.4333,0107,-15.89,-8.45,18.0000,242.0000
1981-05-25 05:00:00 UTC,2444749.708333,29.4519,-93.4333,0107,-14.26,-9.26,17.0000,237.0000
1981-05-25 05:30:00 UTC,2444749.729167,29.4519,-93.4333,0107,-13.21,-10.70,17.0000,231.0000
1981-05-25 06:00:00 UTC,2444749.750000,29.4519,-93.4333,0107,-14.09,-9.51,17.0000,236.0000
1981-05-25 06:30:00 UTC,2444749.770833,29.4519,-93.4333,0107,-13.91,-5.62,15.0000,248.0000
1981-05-25 07:00:00 UTC,2444749.791667,29.4519,-93.4333,0107,-13.83,-2.19,14.0000,261.0000
1981-05-25 07:30:00 UTC,2444749.812500,29.4519,-93.4333,0107,-12.93,-1.36,13.0000,264.0000
1981-05-25 08:00:00 UTC,2444749.833333,29.4519,-93.4333,0107,-12.61,-3.15,13.0000,256.0000
1981-05-25 08:30:00 UTC,2444749.854167,29.4519,-93.4333,0107,-12.29,-4.23,13.0000,251.0000
1981-05-25 09:00:00 UTC,2444749.875000,29.4519,-93.4333,0107,-13.31,-4.33,14.0000,252.0000
1981-05-25 09:30:00 UTC,2444749.895833,29.4519,-93.4333,0107,-15.13,-5.21,16.0000,251.0000
1981-05-25 10:00:00 UTC,2444749.916667,29.4519,-93.4333,0107,-18.35,-4.92,19.0000,255.0000
1981-05-25 10:30:00 UTC,2444749.937500,29.4519,-93.4333,0107,-20.74,-3.29,21.0000,261.0000
1981-05-25 11:00:00 UTC,2444749.958333,29.4519,-93.4333,0107,-19.81,-2.78,20.0000,262.0000
1981-05-25 11:30:00 UTC,2444749.979167,29.4519,-93.4333,0107,-16.79,-2.66,17.0000,261.0000
1981-05-25 12:00:00 UTC,2444750.000000,29.4519,-93.4333,0107,-14.72,-2.86,15.0000,259.0000
1981-05-25 12:30:00 UTC,2444750.020833,29.4519,-93.4333,0107,-14.42,-4.13,15.0000,254.0000
1981-05-25 13:00:00 UTC,2444750.041667,29.4519,-93.4333,0107,-15.53,-6.91,17.0000,246.0000
1981-05-25 13:30:00 UTC,2444750.062500,29.4519,-93.4333,0107,-15.59,-9.00,18.0000,240.0000
1981-05-25 14:00:00 UTC,2444750.083333,29.4519,-93.4333,0107,-14.57,-8.76,17.0000,239.0000
1981-05-25 14:30:00 UTC,2444750.104167,29.4519,-93.4333,0107,-13.86,-8.00,16.0000,240.0000
1981-05-25 15:00:00 UTC,2444750.125000,29.4519,-93.4333,0107,-14.74,-10.32,18.0000,235.0000
1981-05-25 15:30:00 UTC,2444750.145833,29.4519,-93.4333,0107,-16.09,-13.50,21.0000,230.0000
1981-05-25 16:00:00 UTC,2444750.166667,29.4519,-93.4333,0107,-20.13,-13.07,24.0000,237.0000
1981-05-25 16:30:00 UTC,2444750.187500,29.4519,-93.4333,0107,-25.21,-9.68,27.0000,249.0000
1981-05-25 17:00:00 UTC,2444750.208333,29.4519,-93.4333,0107,-22.58,-4.39,23.0000,259.0000
1981-05-25 17:30:00 UTC,2444750.229167,29.4519,-93.4333,0107,-14.00,0.24,14.0000,271.0000
1981-05-25 18:00:00 UTC,2444750.250000,29.4519,-93.4333,0107,-6.98,0.49,7.0000,274.0000
1981-05-25 18:30:00 UTC,2444750.270833,29.4519,-93.4333,0107,-4.60,-3.86,6.0000,230.0000
1981-05-25 19:00:00 UTC,2444750.291667,29.4519,-93.4333,0107,-3.63,-7.13,8.0000,207.0000
1981-05-25 19:30:00 UTC,2444750.312500,29.4519,-93.4333,0107,-5.63,-10.60,12.0000,208.0000
1981-05-25 20:00:00 UTC,2444750.333333,29.4519,-93.4333,0107,-11.15,-12.83,17.0000,221.0000
1981-05-25 20:30:00 UTC,2444750.354167,29.4519,-93.4333,0107,-15.56,-10.90,19.0000,235.0000
1981-05-25 21:00:00 UTC,2444750.375000,29.4519,-93.4333,0107,-16.31,-7.61,18.0000,245.0000
1981-05-25 21:30:00 UTC,2444750.395833,29.4519,-93.4333,0107,-14.83,-5.99,16.0000,248.0000
1981-05-25 22:00:00 UTC,2444750.416667,29.4519,-93.4333,0107,-11.88,-5.29,13.0000,246.0000
1981-05-25 22:30:00 UTC,2444750.437500,29.4519,-93.4333,0107,-11.41,-3.71,12.0000,252.0000
1981-05-25 23:00:00 UTC,2444750.458333,29.4519,-93.4333,0107,-10.63,-2.85,11.0000,255.0000
1981-05-25 23:30:00 UTC,2444750.479167,29.4519,-93.4333,0107,-8.78,-6.62,11.0000,233.0000
1981-05-26 00:00:00 UTC,2444750.500000,29.4519,-93.4333,0107,-8.60,-12.29,15.0000,215.0000
1981-05-26 00:30:00 UTC,2444750.520833,29.4519,-93.4333,0107,-10.32,-14.74,18.0000,215.0000
1981-05-26 01:00:00 UTC,2444750.541667,29.4519,-93.4333,0107,-12.21,-14.55,19.0000,220.0000
1981-05-26 01:30:00 UTC,2444750.562500,29.4519,-93.4333,0107,-12.86,-15.32,20.0000,220.0000
1981-05-26 02:00:00 UTC,2444750.583333,29.4519,-93.4333,0107,-9.26,-14.26,17.0000,213.0000
1981-05-26 02:30:00 UTC,2444750.604167,29.4519,-93.4333,0107,-5.08,-11.97,13.0000,203.0000
1981-05-26 03:00:00 UTC,2444750.625000,29.4519,-93.4333,0107,-3.51,-11.48,12.0000,197.0000
1981-05-26 03:30:00 UTC,2444750.645833,29.4519,-93.4333,0107,-1.56,-9.88,10.0000,189.0000
1981-05-26 04:00:00 UTC,2444750.666667,29.4519,-93.4333,0107,0.97,-6.93,7.0000,172.0000
1981-05-26 04:30:00 UTC,2444750.687500,29.4519,-93.4333,0107,1.45,-5.82,6.0000,166.0000
1981-05-26 05:00:00 UTC,2444750.708333,29.4519,-93.4333,0107,-0.56,-7.98,8.0000,184.0000
1981-05-26 05:30:00 UTC,2444750.729167,29.4519,-93.4333,0107,-5.95,-5.35,8.0000,228.0000
1981-05-26 06:00:00 UTC,2444750.750000,29.4519,-93.4333,0107,-12.98,0.68,13.0000,273.0000
1981-05-26 06:30:00 UTC,2444750.770833,29.4519,-93.4333,0107,-15.97,5.81,17.0000,290.0000